Weather History for Billings, MT

Change the Weather History Date:

Sunday, February 17, 2013

  Actual Average Record
Temperature  
Mean Temperature 37 °F 31 °F  
Max Temperature 44 °F 41 °F 63 °F (1948)
Min Temperature 30 °F 21 °F -35 °F (1936)
Degree Days  
Heating Degree Days 28 34  
Month to date heating degree days 513 607  
Since 1 July heating degree days 4192 4603  
Cooling Degree Days 0 0  
Month to date cooling degree days 0 0  
Year to date cooling degree days 0 0  
Moisture  
Dew Point 22 °F    
Average Humidity 53    
Maximum Humidity 72    
Minimum Humidity 33    
Precipitation  
Precipitation T in 0.02 in 0.40 in (1959)
Month to date precipitation 0.20 0.27  
Year to date precipitation 0.79 0.75  
Snow  
Snow T in 0.20 in 5.10 in (1959)
Month to date snowfall 3.0 3.5  
Since 1 July snowfall 30.7 31.8  
Snow Depth 0.00 in    
Sea Level Pressure  
Sea Level Pressure 29.79 in    
Wind  
Wind Speed 18 mph (WNW)    
Max Wind Speed 35 mph    
Max Gust Speed 45 mph    
Visibility 10 miles    
Events Snow    
T = Trace of Precipitation, MM = Missing Value Source: NWS Daily Summary

Daily Weather History Graph

Daily Weather History Graph

Search for Another Location

Airport:

Trip Planner

Search our weather history database for the weather conditions in past years. The results will help you decide how hot, cold, wet, or windy it might be!

Date:

Astronomy

Feb. 17, 2013 Rise Set
Actual Time 7:12 AM MST 5:44 PM MST
Civil Twilight 6:42 AM MST 6:14 PM MST
Nautical Twilight 6:07 AM MST 6:49 PM MST
Astronomical Twilight 5:33 AM MST 7:23 PM MST
Moon 10:43 AM MST (2/17) 1:06 AM MST (2/17)
Length of Visible Light 11h 32m
Length of Day
10h 31m
Waxing Crescent, 49% of the Moon is Illuminated
Feb 17
Waxing Crescent
Feb 17
First Quarter
Feb 25
Full
Mar 4
Last Quarter
Mar 11
New

Hourly Weather History & Observations

Time (MST) Temp. Windchill Dew Point Humidity Pressure Visibility Wind Dir Wind Speed Gust Speed Precip Events Conditions
12:53 AM 41.0 °F 31.6 °F 21.0 °F 45% 29.71 in 10.0 mi WSW 20.7 mph - N/A   Clear
1:53 AM 39.9 °F 31.4 °F 21.0 °F 47% 29.71 in 10.0 mi WSW 16.1 mph - N/A   Clear
2:53 AM 37.9 °F 29.2 °F 21.0 °F 51% 29.68 in 10.0 mi WSW 15.0 mph - N/A   Clear
3:53 AM 37.0 °F 27.7 °F 21.0 °F 52% 29.67 in 10.0 mi West 16.1 mph 24.2 mph N/A   Clear
4:53 AM 39.0 °F 30.6 °F 21.0 °F 49% 29.69 in 10.0 mi WNW 15.0 mph - N/A   Mostly Cloudy
5:53 AM 37.4 °F 29.8 °F 26.6 °F 65% 29.67 in 9.0 mi SW 11.5 mph 23.0 mph N/A Snow Light Snow
6:22 AM 37.0 °F 31.6 °F 26.1 °F 65% 29.67 in 10.0 mi SW 6.9 mph - 0.00 in   Overcast
6:53 AM 37.4 °F 28.9 °F 26.6 °F 65% 29.67 in 10.0 mi West 13.8 mph - N/A   Overcast
7:53 AM 37.9 °F 28.5 °F 27.0 °F 65% 29.71 in 10.0 mi West 17.3 mph - N/A   Overcast
8:53 AM 37.9 °F 27.6 °F 25.0 °F 60% 29.73 in 10.0 mi West 20.7 mph - N/A   Mostly Cloudy
9:53 AM 39.0 °F 29.9 °F 19.9 °F 46% 29.74 in 10.0 mi West 17.3 mph - N/A   Mostly Cloudy
10:53 AM 41.0 °F 31.6 °F 18.0 °F 40% 29.73 in 10.0 mi NW 20.7 mph 31.1 mph N/A   Scattered Clouds
11:53 AM 43.0 °F 33.1 °F 16.0 °F 34% 29.73 in 10.0 mi NW 26.5 mph 36.8 mph N/A   Scattered Clouds
12:53 PM 43.0 °F 32.9 °F 23.0 °F 45% 29.74 in 10.0 mi NW 27.6 mph 36.8 mph N/A   Mostly Cloudy
1:53 PM 37.0 °F 24.7 °F 24.1 °F 59% 29.78 in 10.0 mi NW 28.8 mph 40.3 mph N/A   Overcast
2:53 PM 36.0 °F 25.0 °F 26.1 °F 67% 29.81 in 10.0 mi NW 20.7 mph 27.6 mph 0.00 in   Mostly Cloudy
3:53 PM 36.0 °F 23.9 °F 24.1 °F 62% 29.84 in 10.0 mi NW 25.3 mph 34.5 mph N/A   Mostly Cloudy
4:53 PM 35.1 °F 23.3 °F 23.0 °F 61% 29.87 in 10.0 mi NW 23.0 mph - N/A   Mostly Cloudy
5:53 PM 34.0 °F 25.5 °F 21.0 °F 59% 29.91 in 10.0 mi NNW 11.5 mph - N/A   Mostly Cloudy
6:53 PM 33.1 °F 22.2 °F 19.9 °F 59% 29.94 in 10.0 mi NNW 17.3 mph - N/A   Partly Cloudy
7:53 PM 30.9 °F 20.7 °F 21.0 °F 67% 29.96 in 10.0 mi NNW 13.8 mph - N/A   Mostly Cloudy
8:53 PM 30.0 °F 21.1 °F 21.9 °F 72% 29.98 in 10.0 mi NW 10.4 mph - N/A   Mostly Cloudy
10:53 PM 30.0 °F 20.0 °F 23.0 °F 75% 30.00 in 10.0 mi NW 12.7 mph - 0.00 in   Mostly Cloudy
11:53 PM 30.9 °F 23.5 °F 23.0 °F 72% 30.01 in 10.0 mi NNW 8.1 mph - N/A   Overcast